Total_Precipitation_Accumulation
0.07 0.25 0.16 0.04 0.06 0.09 0.13 0.17 0.09 0.02 0.05 0.13 0.06 0.05 0.00 0.00 0.02 0.00 0.00 0.00 0.00 0.01 0.00 0.00 0.04 0.11 0.17 0.25 0.21 0.18 0.16 0.10 0.03 0.01 0.00 0.00 0.00 0.00 0.01 0.00 0.00 0.00 0.00 0.00
0.12 0.16 0.03 0.02 0.08 0.19 0.35 0.47 0.38 0.16 0.04 0.14 0.08 0.06 0.01 0.01 0.02 0.01 0.00 0.00 0.00 0.00 0.01 0.01 0.03 0.10 0.22 0.29 0.30 0.22 0.23 0.17 0.09 0.03 0.02 0.01 0.00 0.00 0.00 0.00 0.00 0.00 0.00 0.00
0.14 0.03 0.01 0.07 0.15 0.24 0.32 0.46 0.35 0.35 0.25 0.27 0.26 0.18 0.03 0.00 0.00 0.01 0.00 0.00 0.00 0.00 0.01 0.00 0.01 0.04 0.13 0.33 0.38 0.35 0.25 0.31 0.17 0.08 0.06 0.02 0.00 0.00 0.00 0.00 0.00 0.00 0.00 0.00
0.17 0.02 0.04 0.08 0.10 0.17 0.30 0.17 0.22 0.26 0.58 0.66 0.54 0.65 0.01 0.00 0.00 0.00 0.00 0.00 0.00 0.00 0.00 0.00 0.00 0.01 0.02 0.13 0.37 0.45 0.41 0.31 0.31 0.16 0.09 0.09 0.03 0.01 0.00 0.00 0.00 0.00 0.00 0.00
0.27 0.02 0.04 0.10 0.03 0.10 0.10 0.07 0.13 0.29 0.58 0.74 0.53 0.89 0.19 0.00 0.00 0.00 0.00 0.00 0.00 0.00 0.00 0.00 0.00 0.00 0.00 0.03 0.15 0.38 0.44 0.42 0.33 0.27 0.13 0.05 0.05 0.03 0.01 0.00 0.00 0.00 0.00 0.00
0.20 0.05 0.20 0.14 0.06 0.09 0.12 0.21 0.23 0.34 0.58 1.34 0.46 0.48 0.17 0.02 0.00 0.00 0.00 0.00 0.00 0.00 0.00 0.00 0.00 0.03 0.03 0.04 0.08 0.20 0.42 0.46 0.32 0.31 0.21 0.07 0.02 0.01 0.00 0.00 0.00 0.00 0.00 0.00
0.31 0.19 0.16 0.27 0.38 0.22 0.41 0.64 0.90 0.82 0.94 0.68 0.12 0.35 0.27 0.02 0.00 0.00 0.00 0.00 0.00 0.00 0.00 0.00 0.00 0.01 0.06 0.07 0.13 0.23 0.31 0.45 0.40 0.25 0.22 0.14 0.06 0.02 0.01 0.00 0.00 0.00 0.00 0.00
0.18 0.19 0.27 0.21 0.45 0.49 0.25 0.55 0.76 0.39 0.15 0.06 0.05 0.18 0.05 0.01 0.00 0.00 0.00 0.00 0.00 0.00 0.00 0.00 0.00 0.00 0.02 0.03 0.12 0.14 0.23 0.23 0.29 0.33 0.25 0.12 0.05 0.02 0.01 0.00 0.00 0.00 0.00 0.00
0.23 0.12 0.11 0.17 0.08 0.31 0.45 0.38 0.22 0.42 0.29 0.16 0.05 0.01 0.00 0.00 0.00 0.00 0.00 0.00 0.00 0.00 0.00 0.00 0.00 0.00 0.01 0.01 0.02 0.05 0.07 0.17 0.15 0.17 0.25 0.19 0.07 0.03 0.01 0.00 0.00 0.00 0.00 0.00
0.33 0.32 0.04 0.10 0.28 0.27 0.48 0.55 0.51 0.92 0.78 0.27 0.04 0.00 0.00 0.00 0.00 0.00 0.00 0.00 0.00 0.00 0.00 0.00 0.00 0.00 0.00 0.04 0.03 0.03 0.06 0.05 0.11 0.11 0.12 0.15 0.10 0.03 0.02 0.01 0.00 0.00 0.00 0.00
0.47 0.50 0.17 0.13 0.35 0.59 0.50 1.47 0.81 0.49 0.18 0.35 0.12 0.03 0.00 0.00 0.00 0.00 0.00 0.00 0.00 0.00 0.00 0.00 0.00 0.00 0.00 0.02 0.02 0.02 0.06 0.07 0.07 0.08 0.15 0.15 0.08 0.09 0.03 0.01 0.00 0.00 0.00 0.00
0.40 0.63 0.37 0.19 0.32 0.43 0.42 0.65 0.81 0.47 0.34 0.18 0.28 0.17 0.03 0.02 0.02 0.02 0.00 0.00 0.00 0.00 0.00 0.00 0.00 0.00 0.02 0.02 0.01 0.01 0.05 0.07 0.05 0.05 0.06 0.11 0.10 0.05 0.03 0.02 0.00 0.00 0.00 0.00
0.55 0.59 0.36 0.47 0.46 0.25 0.44 0.53 0.66 0.42 0.40 0.27 0.48 0.48 0.14 0.08 0.07 0.06 0.02 0.00 0.00 0.00 0.00 0.00 0.00 0.00 0.01 0.00 0.02 0.01 0.02 0.05 0.07 0.05 0.03 0.04 0.07 0.06 0.02 0.01 0.01 0.00 0.00 0.00
0.40 0.34 0.40 0.51 0.47 0.39 0.30 0.26 0.39 0.55 0.57 0.31 0.62 0.53 0.40 0.17 0.08 0.04 0.04 0.01 0.00 0.00 0.00 0.00 0.00 0.00 0.05 0.07 0.05 0.02 0.02 0.05 0.08 0.07 0.04 0.02 0.02 0.04 0.02 0.02 0.02 0.01 0.00 0.00
0.26 0.14 0.06 0.04 0.05 0.10 0.24 0.40 0.30 0.40 0.34 0.34 0.62 0.36 0.49 0.25 0.05 0.01 0.01 0.00 0.00 0.00 0.00 0.00 0.00 0.00 0.04 0.09 0.06 0.04 0.04 0.05 0.09 0.10 0.05 0.02 0.01 0.02 0.03 0.02 0.03 0.03 0.01 0.00
0.09 0.11 0.03 0.02 0.03 0.10 0.27 0.34 0.32 0.29 0.20 0.25 0.33 0.23 0.31 0.17 0.02 0.01 0.00 0.00 0.00 0.00 0.01 0.01 0.00 0.00 0.02 0.08 0.05 0.07 0.14 0.12 0.09 0.13 0.11 0.05 0.03 0.04 0.05 0.03 0.03 0.04 0.04 0.00
0.03 0.07 0.11 0.07 0.05 0.10 0.32 0.56 0.46 0.38 0.19 0.18 0.18 0.26 0.16 0.04 0.00 0.00 0.00 0.00 0.00 0.00 0.03 0.03 0.00 0.00 0.01 0.02 0.05 0.07 0.13 0.20 0.17 0.19 0.19 0.16 0.07 0.05 0.07 0.06 0.04 0.05 0.04 0.01
0.01 0.05 0.15 0.08 0.05 0.23 0.43 0.30 0.31 0.41 0.26 0.16 0.15 0.10 0.02 0.00 0.00 0.00 0.00 0.00 0.00 0.00 0.01 0.04 0.03 0.01 0.01 0.04 0.08 0.18 0.26 0.23 0.31 0.34 0.30 0.21 0.18 0.13 0.11 0.23 0.17 0.05 0.05 0.03
0.01 0.02 0.10 0.10 0.08 0.11 0.09 0.07 0.14 0.19 0.20 0.07 0.05 0.02 0.00 0.00 0.00 0.00 0.00 0.00 0.01 0.01 0.00 0.02 0.03 0.02 0.03 0.06 0.11 0.17 0.37 0.35 0.34 0.45 0.49 0.33 0.18 0.20 0.25 0.43 0.50 0.26 0.10 0.05
0.01 0.03 0.05 0.07 0.12 0.11 0.11 0.02 0.03 0.07 0.22 0.04 0.03 0.04 0.02 0.00 0.00 0.00 0.00 0.01 0.01 0.02 0.00 0.00 0.01 0.05 0.01 0.05 0.16 0.24 0.36 0.42 0.37 0.49 0.50 0.58 0.49 0.33 0.31 0.47 0.78 0.58 0.25 0.11
0.11 0.16 0.10 0.03 0.10 0.07 0.02 0.00 0.02 0.13 0.19 0.02 0.03 0.08 0.06 0.05 0.06 0.03 0.01 0.00 0.00 0.00 0.00 0.00 0.01 0.12 0.05 0.04 0.16 0.44 0.65 0.60 0.43 0.46 0.63 0.72 0.78 0.79 0.59 0.48 0.69 0.86 0.57 0.26
0.33 0.16 0.08 0.05 0.07 0.07 0.01 0.01 0.04 0.07 0.01 0.02 0.02 0.08 0.08 0.04 0.03 0.02 0.01 0.01 0.00 0.00 0.00 0.00 0.01 0.10 0.12 0.15 0.18 0.32 0.75 1.04 0.66 0.57 0.65 0.79 0.84 0.88 0.86 0.73 0.73 0.83 0.88 0.61
0.58 0.44 0.28 0.09 0.06 0.03 0.00 0.01 0.01 0.00 0.00 0.00 0.04 0.04 0.09 0.06 0.03 0.02 0.02 0.01 0.01 0.01 0.01 0.01 0.02 0.10 0.10 0.19 0.32 0.42 0.62 0.90 1.01 0.86 0.77 0.82 0.86 0.87 0.87 0.87 0.89 0.96 0.92 0.87
0.14 0.10 0.11 0.10 0.02 0.00 0.00 0.00 0.00 0.00 0.00 0.00 0.04 0.07 0.08 0.07 0.03 0.03 0.03 0.03 0.03 0.03 0.06 0.06 0.10 0.28 0.34 0.41 0.68 0.62 0.66 0.81 0.86 1.01 0.96 0.93 1.00 1.09 1.05 1.01 0.95 0.89 0.91 0.88
0.16 0.06 0.02 0.02 0.02 0.01 0.00 0.00 0.00 0.00 0.00 0.02 0.03 0.06 0.10 0.08 0.05 0.05 0.06 0.05 0.04 0.04 0.15 0.17 0.21 0.36 0.46 0.57 0.84 0.85 0.78 0.76 0.99 1.03 1.06 1.02 1.06 0.96 0.94 0.88 0.86 0.82 0.76 0.57
0.14 0.14 0.11 0.03 0.00 0.04 0.01 0.00 0.00 0.01 0.01 0.04 0.05 0.09 0.11 0.12 0.09 0.08 0.09 0.08 0.06 0.08 0.27 0.25 0.35 0.44 0.60 0.69 0.83 0.94 0.92 0.72 0.66 0.71 0.73 0.68 0.69 0.68 0.58 0.57 0.74 0.68 0.67 0.65